| time (UTC) | temp F | wind direction | speed MPH | gust MPH | rain 1hr in | rain 24hr in | rain mn in | humidity % | barometer mb |
| 20260503204531 | 43 | 306 | 2.0 | 5.0 | 0.00 | 0.00 | 0.00 | 57 | 1009.7 |
| 20260503203100 | 43 | 244 | 1.0 | 8.0 | 0.00 | 0.00 | 0.00 | 58 | 1009.7 |
| 20260503201558 | 43 | 360 | 3.0 | 8.0 | 0.00 | 0.00 | 0.00 | 56 | 1009.7 |
| 20260503200059 | 42 | 284 | 2.0 | 5.0 | 0.00 | 0.00 | 0.00 | 59 | 1009.9 |
| 20260503194555 | 42 | 302 | 2.0 | 8.0 | 0.00 | 0.00 | 0.00 | 60 | 1010.2 |
| 20260503193059 | 42 | 318 | 2.0 | 10.0 | 0.00 | 0.00 | 0.00 | 60 | 1010.1 |
| 20260503191603 | 42 | 303 | 4.0 | 9.0 | 0.00 | 0.00 | 0.00 | 60 | 1010.4 |
| 20260503190048 | 41 | 300 | 4.0 | 8.0 | 0.00 | 0.00 | 0.00 | 61 | 1010.4 |
| 20260503184547 | 41 | 297 | 3.0 | 8.0 | 0.00 | 0.00 | 0.00 | 61 | 1010.5 |
| 20260503183107 | 41 | 329 | 2.0 | 4.0 | 0.00 | 0.00 | 0.00 | 61 | 1010.6 |
| 20260503181613 | 42 | 28 | 2.0 | 6.0 | 0.00 | 0.00 | 0.00 | 60 | 1010.5 |
| 20260503180043 | 41 | 324 | 3.0 | 9.0 | 0.00 | 0.00 | 0.00 | 60 | 1010.5 |
| 20260503174543 | 41 | 346 | 3.0 | 8.0 | 0.00 | 0.00 | 0.00 | 60 | 1010.5 |
| 20260503173045 | 41 | 286 | 3.0 | 9.0 | 0.00 | 0.00 | 0.00 | 60 | 1010.6 |
| 20260503171540 | 41 | 295 | 5.0 | 8.0 | 0.00 | 0.00 | 0.00 | 61 | 1010.6 |
| 20260503150106 | 42 | 324 | 2.0 | 7.0 | 0.00 | 0.00 | 0.00 | 60 | 1011.2 |
| 20260503081507 | 34 | 162 | 0.0 | 1.0 | 0.00 | 0.00 | 0.00 | 95 | 1012.2 |
| 20260503071537 | 34 | 164 | 0.0 | 2.0 | 0.00 | 0.00 | 0.00 | 95 | 1012.0 |
| 20260503060121 | 34 | 164 | 0.0 | 1.0 | 0.00 | 0.00 | 0.00 | 95 | 1012.5 |
| 20260503054600 | 34 | 164 | 0.0 | 2.0 | 0.00 | 0.00 | 0.00 | 95 | 1012.6 |
| 20260503053054 | 34 | 164 | 0.0 | 1.0 | 0.00 | 0.00 | 0.00 | 95 | 1012.6 |
| 20260503051553 | 34 | 164 | 0.0 | 2.0 | 0.00 | 0.00 | 0.00 | 95 | 1012.9 |
| 20260503050052 | 34 | 164 | 0.0 | 2.0 | 0.00 | 0.00 | 0.00 | 95 | 1012.9 |
| 20260503044548 | 34 | 164 | 0.0 | 3.0 | 0.00 | 0.00 | 0.00 | 95 | 1012.9 |
| 20260503043046 | 35 | 62 | 0.0 | 1.0 | 0.00 | 0.00 | 0.00 | 94 | 1013.2 |
| 20260503041543 | 35 | 62 | 0.0 | 2.0 | 0.00 | 0.00 | 0.00 | 94 | 1013.2 |
| 20260503040043 | 35 | 109 | 0.0 | 2.0 | 0.00 | 0.00 | 0.00 | 95 | 1013.2 |
| 20260503034541 | 35 | 66 | 0.0 | 3.0 | 0.00 | 0.00 | 0.00 | 95 | 1013.4 |
| 20260503033048 | 35 | 104 | 0.0 | 2.0 | 0.00 | 0.00 | 0.00 | 95 | 1013.4 |
| 20260503031511 | 34 | 104 | 0.0 | 1.0 | 0.00 | 0.00 | 0.00 | 95 | 1013.4 |
| 20260503030010 | 34 | 102 | 1.0 | 5.0 | 0.00 | 0.00 | 0.00 | 95 | 1013.6 |
| 20260503024506 | 34 | 47 | 0.0 | 4.0 | 0.00 | 0.00 | 0.00 | 94 | 1013.6 |
| 20260503023005 | 34 | 77 | 0.0 | 4.0 | 0.00 | 0.00 | 0.00 | 95 | 1013.7 |
| 20260503021503 | 35 | 101 | 1.0 | 2.0 | 0.00 | 0.00 | 0.00 | 95 | 1013.8 |
| 20260503020002 | 34 | 103 | 0.0 | 2.0 | 0.00 | 0.00 | 0.00 | 94 | 1013.9 |
| 20260503014558 | 35 | 101 | 0.0 | 2.0 | 0.00 | 0.00 | 0.00 | 94 | 1014.0 |
| 20260503013103 | 35 | 100 | 0.0 | 2.0 | 0.00 | 0.00 | 0.00 | 94 | 1013.9 |
| 20260503011606 | 35 | 98 | 0.0 | 2.0 | 0.00 | 0.00 | 0.00 | 94 | 1014.0 |
| 20260503010119 | 36 | 98 | 1.0 | 4.0 | 0.00 | 0.00 | 0.00 | 93 | 1013.9 |
| 20260503004527 | 36 | 101 | 0.0 | 3.0 | 0.00 | 0.00 | 0.00 | 94 | 1013.7 |
| 20260503003024 | 36 | 38 | 0.0 | 3.0 | 0.00 | 0.00 | 0.00 | 94 | 1013.4 |
| 20260503001521 | 36 | 49 | 0.0 | 2.0 | 0.00 | 0.00 | 0.00 | 94 | 1013.5 |
| 20260503000019 | 37 | 47 | 0.0 | 2.0 | 0.00 | 0.00 | 0.00 | 93 | 1013.5 |
| 20260502234516 | 37 | 47 | 0.0 | 0.0 | 0.00 | 0.00 | 0.00 | 93 | 1013.2 |
| 20260502233018 | 37 | 279 | 0.0 | 2.0 | 0.00 | 0.00 | 0.00 | 93 | 1013.1 |
| 20260502231614 | 37 | 279 | 0.0 | 2.0 | 0.00 | 0.00 | 0.00 | 92 | 1013.2 |
| 20260502230045 | 37 | 279 | 0.0 | 2.0 | 0.00 | 0.00 | 0.00 | 92 | 1013.0 |
| 20260502224543 | 37 | 279 | 0.0 | 2.0 | 0.00 | 0.00 | 0.00 | 89 | 1012.9 |
| 20260502223045 | 38 | 279 | 0.0 | 4.0 | 0.00 | 0.00 | 0.00 | 88 | 1012.8 |
| 20260502221545 | 38 | 107 | 0.0 | 3.0 | 0.00 | 0.00 | 0.00 | 86 | 1012.5 |
| 20260502220040 | 39 | 139 | 0.0 | 3.0 | 0.00 | 0.00 | 0.00 | 86 | 1012.5 |
| 20260502214549 | 39 | 284 | 1.0 | 4.0 | 0.00 | 0.00 | 0.00 | 86 | 1012.4 |
| 20260502213009 | 39 | 290 | 1.0 | 5.0 | 0.00 | 0.00 | 0.00 | 85 | 1012.3 |
| 20260502211522 | 40 | 310 | 2.0 | 5.0 | 0.00 | 0.00 | 0.00 | 85 | 1012.3 |
| 20260502210047 | 40 | 323 | 0.0 | 2.0 | 0.00 | 0.00 | 0.00 | 86 | 1012.3 |